WBANNO,USDM_WEEK,LONGITUDE,LATITUDE,SMVWC_5_CM_MEAN,SMANOM_5_CM_MEAN,SMPERC_5_CM_30COUNTS,SMPERC_5_CM_70COUNTS,SMVWC_10_CM_MEAN,SMANOM_10_CM_MEAN,SMPERC_10_CM_30COUNTS,SMPERC_10_CM_70COUNTS,SMVWC_20_CM_MEAN,SMANOM_20_CM_MEAN,SMPERC_20_CM_30COUNTS,SMPERC_20_CM_70COUNTS,SMVWC_50_CM_MEAN,SMANOM_50_CM_MEAN,SMPERC_50_CM_30COUNTS,SMPERC_50_CM_70COUNTS,SMVWC_100_CM_MEAN,SMANOM_100_CM_MEAN,SMPERC_100_CM_30COUNTS,SMPERC_100_CM_70COUNTS,SMVWC_TOP_CM_MEAN,SMANOM_TOP_CM_MEAN,SMPERC_TOP_CM_30COUNTS,SMPERC_TOP_CM_70COUNTS,SMVWC_COLUMN_CM_MEAN,SMANOM_COLUMN_CM_MEAN,SMPERC_COLUMN_CM_30COUNTS,SMPERC_COLUMN_CM_70COUNTS
53136,20100206,-116.02,36.62,,,,,,,,,,,,,,,,,,,,,,,,,,,,
53136,20100207,-116.02,36.62,,,,,,,,,,,,,,,,,,,,,,,,,,,,
53136,20100208,-116.02,36.62,,,,,,,,,,,,,,,,,,,,,,,,,,,,
53136,20100209,-116.02,36.62,,,,,,,,,,,,,,,,,,,,,,,,,,,,
53136,20100210,-116.02,36.62,,,,,,,,,,,,,,,,,,,,,,,,,,,,
53136,20100211,-116.02,36.62,,,,,,,,,,,,,,,,,,,,,,,,,,,,
53136,20100212,-116.02,36.62,0.089,1.28,0,0.93,0.103,1.58,0.006,0.86,0.062,0.61,0.025,0.752,0.053,0.14,0,0.389,0.052,0.27,0,0.159,0.096,1.37,0,0.917,0.072,0.72,0,0.873
53136,20100213,-116.02,36.62,0.09,1.33,0,1,0.106,1.7,0,0.946,0.065,0.74,0,0.845,0.055,0.21,0,0.506,0.053,0.33,0,0.292,0.098,1.45,0,1,0.074,0.8,0,0.958
53136,20100214,-116.02,36.62,0.087,1.2,0,1,0.107,1.72,0,1,0.069,0.91,0,0.988,0.057,0.29,0,0.619,0.056,0.4,0,0.435,0.097,1.4,0,1,0.075,0.84,0,1
53136,20100215,-116.02,36.62,0.085,1.11,0,1,0.106,1.63,0,1,0.07,0.98,0,1,0.059,0.36,0,0.732,0.058,0.46,0,0.577,0.095,1.32,0,1,0.076,0.85,0,1
53136,20100216,-116.02,36.62,0.084,1.07,0,1,0.105,1.58,0,1,0.072,1.03,0,1,0.061,0.41,0,0.845,0.06,0.54,0,0.72,0.095,1.28,0,1,0.076,0.86,0,1
53136,20100217,-116.02,36.62,0.079,0.88,0,1,0.101,1.4,0,1,0.07,0.97,0,1,0.061,0.42,0,0.875,0.062,0.6,0,0.863,0.09,1.1,0,1,0.075,0.79,0,1
53136,20100218,-116.02,36.62,0.075,0.74,0,1,0.097,1.21,0,1,0.068,0.88,0,1,0.061,0.4,0,0.821,0.062,0.61,0,0.994,0.086,0.95,0,1,0.073,0.7,0,1
53136,20100219,-116.02,36.62,0.073,0.64,0,0.976,0.094,1.08,0,1,0.067,0.8,0,1,0.06,0.39,0,0.696,0.062,0.61,0,0.994,0.084,0.85,0,1,0.071,0.63,0,1
53136,20100220,-116.02,36.62,0.071,0.57,0,0.929,0.092,0.97,0,1,0.066,0.74,0,1,0.06,0.37,0,0.554,0.062,0.6,0,0.994,0.081,0.76,0,1,0.07,0.57,0,1
53136,20100221,-116.02,36.62,0.069,0.51,0,0.875,0.09,0.88,0,1,0.064,0.69,0,1,0.059,0.35,0,0.44,0.062,0.59,0,0.964,0.08,0.7,0,1,0.069,0.52,0,1
53136,20100222,-116.02,36.62,0.068,0.48,0,0.851,0.088,0.81,0,1,0.063,0.64,0,1,0.059,0.32,0,0.327,0.062,0.57,0,0.875,0.078,0.65,0,1,0.068,0.49,0,1
53136,20100223,-116.02,36.62,0.068,0.46,0,0.821,0.087,0.75,0,1,0.062,0.59,0,1,0.058,0.3,0,0.214,0.061,0.56,0,0.768,0.077,0.62,0,1,0.067,0.46,0,1
53136,20100224,-116.02,36.62,0.067,0.44,0,0.726,0.085,0.7,0,1,0.062,0.55,0,1,0.058,0.28,0,0.107,0.061,0.54,0,0.649,0.076,0.59,0,0.97,0.067,0.44,0,1
53136,20100225,-116.02,36.62,0.066,0.41,0,0.613,0.084,0.65,0,1,0.061,0.52,0,1,0.057,0.25,0,0.018,0.061,0.52,0,0.506,0.075,0.55,0,0.893,0.066,0.42,0,0.923
53136,20100226,-116.02,36.62,0.065,0.39,0,0.494,0.083,0.62,0,1,0.06,0.49,0,1,0.057,0.23,0,0,0.061,0.5,0,0.369,0.074,0.53,0,0.798,0.065,0.39,0,0.792
53136,20100227,-116.02,36.62,0.065,0.36,0,0.399,0.082,0.58,0,0.946,0.059,0.47,0,0.994,0.056,0.22,0,0,0.06,0.48,0,0.226,0.073,0.51,0,0.685,0.064,0.37,0,0.661
53136,20100228,-116.02,36.62,0.068,0.48,0,0.417,0.082,0.62,0,0.946,0.059,0.46,0,0.976,0.056,0.2,0,0,0.06,0.46,0,0.113,0.075,0.59,0,0.649,0.065,0.4,0,0.625
53136,20100301,-116.02,36.62,0.071,0.57,0,0.44,0.085,0.74,0,0.946,0.059,0.49,0,0.976,0.056,0.2,0,0,0.06,0.45,0,0.06,0.078,0.7,0,0.649,0.066,0.45,0,0.625
53136,20100302,-116.02,36.62,0.072,0.61,0,0.47,0.087,0.82,0,0.946,0.06,0.53,0,0.976,0.056,0.21,0,0,0.06,0.44,0,0.024,0.079,0.75,0,0.649,0.067,0.48,0,0.625
53136,20100303,-116.02,36.62,0.073,0.64,0,0.565,0.088,0.88,0,0.946,0.06,0.55,0,0.976,0.056,0.21,0,0,0.06,0.43,0,0,0.08,0.8,0,0.679,0.067,0.51,0,0.625
53136,20100304,-116.02,36.62,0.074,0.66,0,0.667,0.089,0.93,0,0.946,0.061,0.58,0,0.976,0.056,0.22,0,0,0.06,0.42,0,0,0.081,0.84,0,0.756,0.068,0.54,0,0.702
53136,20100305,-116.02,36.62,0.074,0.68,0,0.75,0.09,0.96,0,0.946,0.061,0.6,0,0.976,0.056,0.24,0,0,0.06,0.42,0,0,0.082,0.86,0,0.851,0.068,0.56,0,0.833
53136,20100306,-116.02,36.62,0.075,0.7,0,0.833,0.091,1,0,1,0.062,0.62,0,0.982,0.057,0.25,0,0,0.06,0.42,0,0,0.083,0.89,0,0.964,0.069,0.59,0,0.964
53136,20100307,-116.02,36.62,0.071,0.58,0,0.786,0.09,0.96,0,1,0.062,0.63,0,1,0.057,0.26,0,0,0.06,0.42,0,0,0.08,0.81,0,0.982,0.068,0.57,0,1
53136,20100308,-116.02,36.62,0.07,0.55,0,0.786,0.087,0.87,0,1,0.061,0.61,0,1,0.057,0.27,0,0,0.061,0.42,0,0,0.078,0.75,0,0.982,0.067,0.55,0,1
53136,20100309,-116.02,36.62,0.069,0.53,0,0.786,0.086,0.83,0,1,0.061,0.6,0,1,0.057,0.27,0,0,0.061,0.41,0,0,0.078,0.72,0,0.982,0.067,0.55,0,1
53136,20100310,-116.02,36.62,0.069,0.54,0,0.786,0.085,0.79,0,1,0.06,0.59,0,1,0.057,0.28,0,0,0.061,0.41,0,0,0.077,0.71,0,0.982,0.066,0.56,0,1
53136,20100311,-116.02,36.62,0.069,0.55,0,0.792,0.084,0.76,0,1,0.06,0.57,0,1,0.057,0.27,0,0,0.06,0.4,0,0,0.076,0.7,0,0.982,0.066,0.56,0,1
53136,20100312,-116.02,36.62,0.069,0.54,0,0.804,0.083,0.75,0,1,0.059,0.57,0,1,0.056,0.27,0,0,0.06,0.4,0,0,0.076,0.7,0,0.982,0.066,0.56,0,1
53136,20100313,-116.02,36.62,0.068,0.55,0,0.798,0.082,0.74,0,1,0.059,0.57,0,1,0.056,0.26,0,0,0.06,0.4,0,0,0.075,0.69,0,0.982,0.065,0.56,0,1
53136,20100314,-116.02,36.62,0.068,0.54,0,0.78,0.082,0.74,0,0.994,0.059,0.57,0,0.994,0.056,0.26,0,0,0.06,0.39,0,0,0.075,0.68,0,0.976,0.065,0.55,0,0.976
53136,20100315,-116.02,36.62,0.065,0.46,0,0.655,0.081,0.7,0,0.994,0.058,0.57,0,0.982,0.056,0.25,0,0,0.06,0.39,0,0,0.073,0.63,0,0.964,0.064,0.52,0,0.935
53136,20100316,-116.02,36.62,0.064,0.43,0,0.571,0.08,0.67,0,0.994,0.058,0.56,0,0.976,0.055,0.24,0,0,0.06,0.39,0,0,0.072,0.59,0,0.964,0.063,0.5,0,0.917
53136,20100317,-116.02,36.62,0.063,0.39,0,0.53,0.079,0.66,0,0.994,0.058,0.56,0,0.976,0.055,0.24,0,0,0.06,0.39,0,0,0.071,0.56,0,0.964,0.063,0.48,0,0.917
53136,20100318,-116.02,36.62,0.062,0.38,0,0.53,0.078,0.65,0,0.994,0.057,0.57,0,0.97,0.055,0.25,0,0,0.06,0.39,0,0.006,0.07,0.55,0,0.964,0.063,0.47,0,0.911
53136,20100319,-116.02,36.62,0.061,0.39,0,0.56,0.078,0.65,0,0.994,0.057,0.58,0,0.97,0.055,0.26,0,0,0.06,0.39,0,0.006,0.07,0.55,0,0.964,0.062,0.47,0,0.905
53136,20100320,-116.02,36.62,0.061,0.39,0,0.601,0.077,0.64,0,0.994,0.057,0.58,0,0.97,0.056,0.26,0,0.006,0.06,0.39,0,0.006,0.069,0.54,0,0.964,0.062,0.47,0,0.893
53136,20100321,-116.02,36.62,0.06,0.39,0,0.679,0.077,0.64,0,1,0.057,0.58,0,0.976,0.055,0.26,0,0.006,0.06,0.39,0,0.006,0.069,0.54,0,0.988,0.062,0.47,0,0.893
53136,20100322,-116.02,36.62,0.06,0.41,0,0.786,0.076,0.65,0,1,0.056,0.59,0,0.988,0.055,0.27,0,0.006,0.06,0.39,0,0.006,0.068,0.54,0,1,0.062,0.47,0,0.869
53136,20100323,-116.02,36.62,0.06,0.42,0,0.863,0.076,0.65,0,1,0.056,0.59,0,0.994,0.055,0.27,0,0.006,0.059,0.39,0,0.006,0.068,0.54,0,1,0.061,0.47,0,0.839
53136,20100324,-116.02,36.62,0.059,0.42,0,0.899,0.075,0.64,0,1,0.056,0.59,0,0.988,0.055,0.26,0,0.006,0.059,0.38,0,0.006,0.067,0.52,0,1,0.061,0.46,0,0.744
53136,20100325,-116.02,36.62,0.058,0.42,0,0.893,0.074,0.62,0,1,0.055,0.58,0,0.994,0.055,0.25,0,0.006,0.059,0.38,0,0,0.066,0.51,0,0.982,0.06,0.45,0,0.649
53136,20100326,-116.02,36.62,0.058,0.42,0,0.899,0.073,0.61,0,1,0.054,0.57,0,0.964,0.054,0.23,0,0.006,0.059,0.37,0,0,0.065,0.49,0,0.958,0.06,0.44,0,0.518
53136,20100327,-116.02,36.62,0.057,0.43,0,0.917,0.072,0.6,0,1,0.054,0.56,0,0.952,0.053,0.22,0,0,0.058,0.36,0,0,0.065,0.48,0,0.958,0.059,0.44,0,0.494
53136,20100328,-116.02,36.62,0.057,0.43,0,0.94,0.071,0.59,0,0.988,0.053,0.55,0,0.935,0.053,0.21,0,0,0.058,0.35,0,0,0.064,0.47,0,0.958,0.059,0.44,0,0.464
53136,20100329,-116.02,36.62,0.056,0.44,0,0.958,0.071,0.57,0,0.988,0.053,0.54,0,0.929,0.053,0.2,0,0,0.058,0.35,0,0.006,0.064,0.46,0,0.958,0.058,0.44,0,0.512
53136,20100330,-116.02,36.62,0.056,0.44,0,0.964,0.07,0.56,0,0.988,0.052,0.54,0,0.929,0.052,0.19,0,0,0.057,0.34,0,0.006,0.063,0.46,0,0.958,0.058,0.45,0,0.56
53136,20100331,-116.02,36.62,0.055,0.45,0,0.97,0.07,0.56,0,0.988,0.052,0.54,0,0.935,0.052,0.19,0,0.006,0.057,0.33,0,0.018,0.063,0.47,0,0.958,0.057,0.47,0,0.655
53136,20100401,-116.02,36.62,0.055,0.46,0,0.94,0.069,0.54,0,0.929,0.052,0.54,0,0.929,0.052,0.19,0,0.006,0.057,0.33,0,0.024,0.062,0.47,0,0.97,0.057,0.49,0,0.756
53136,20100402,-116.02,36.62,0.054,0.47,0,0.952,0.068,0.52,0,0.833,0.051,0.55,0,0.952,0.052,0.18,0,0.006,0.057,0.33,0,0.042,0.061,0.48,0,0.988,0.056,0.5,0,0.893
53136,20100403,-116.02,36.62,0.054,0.47,0,0.952,0.068,0.5,0,0.792,0.051,0.54,0,0.964,0.051,0.18,0,0.006,0.056,0.32,0,0.042,0.061,0.48,0,0.988,0.056,0.52,0,0.929
53136,20100404,-116.02,36.62,0.053,0.48,0,0.935,0.067,0.48,0,0.756,0.05,0.54,0,0.976,0.051,0.17,0,0.006,0.056,0.32,0,0.06,0.06,0.49,0,0.988,0.055,0.53,0,0.982
53136,20100405,-116.02,36.62,0.053,0.48,0,0.923,0.066,0.47,0,0.714,0.05,0.54,0,0.976,0.05,0.16,0,0.012,0.056,0.32,0,0.125,0.06,0.49,0,0.988,0.055,0.54,0,1
53136,20100406,-116.02,36.62,0.052,0.48,0,0.857,0.065,0.45,0,0.625,0.049,0.53,0,0.952,0.05,0.16,0,0.018,0.055,0.32,0,0.196,0.059,0.49,0,0.935,0.054,0.54,0,1
53136,20100407,-116.02,36.62,0.052,0.48,0,0.857,0.065,0.43,0,0.583,0.048,0.52,0,0.952,0.049,0.16,0,0.054,0.055,0.32,0,0.19,0.058,0.49,0,0.935,0.054,0.54,0,1
53136,20100408,-116.02,36.62,0.051,0.5,0,0.899,0.064,0.43,0,0.613,0.047,0.52,0,0.958,0.049,0.16,0,0.071,0.055,0.32,0,0.226,0.058,0.5,0,0.94,0.053,0.54,0,1
53136,20100409,-116.02,36.62,0.051,0.51,0,0.899,0.064,0.45,0,0.702,0.047,0.53,0,0.964,0.049,0.17,0,0.101,0.054,0.31,0,0.274,0.057,0.52,0,0.946,0.053,0.55,0,1
53136,20100410,-116.02,36.62,0.05,0.53,0,0.905,0.064,0.48,0,0.744,0.047,0.54,0,0.964,0.049,0.18,0,0.125,0.054,0.32,0,0.345,0.057,0.54,0,0.946,0.053,0.55,0,1
53136,20100411,-116.02,36.62,0.05,0.55,0,0.923,0.063,0.5,0,0.792,0.047,0.54,0,0.97,0.048,0.18,0,0.137,0.054,0.32,0,0.417,0.057,0.56,0,0.946,0.052,0.56,0,1
53136,20100412,-116.02,36.62,0.049,0.57,0,0.935,0.063,0.5,0,0.821,0.046,0.54,0,0.952,0.048,0.18,0,0.137,0.053,0.31,0,0.44,0.056,0.57,0,0.946,0.052,0.56,0,1
53136,20100413,-116.02,36.62,0.052,0.69,0,1,0.063,0.54,0,0.911,0.046,0.53,0,0.94,0.048,0.18,0,0.137,0.053,0.31,0,0.482,0.057,0.66,0,1,0.052,0.59,0,1
53136,20100414,-116.02,36.62,0.052,0.75,0,1,0.063,0.58,0,0.952,0.045,0.52,0,0.929,0.047,0.17,0,0.107,0.053,0.32,0,0.554,0.058,0.72,0,1,0.052,0.61,0,1
53136,20100415,-116.02,36.62,0.053,0.8,0,1,0.063,0.62,0,0.982,0.045,0.52,0,0.929,0.047,0.17,0,0.095,0.052,0.32,0,0.577,0.058,0.77,0,1,0.052,0.63,0,1
53136,20100416,-116.02,36.62,0.053,0.84,0,1,0.063,0.65,0,0.988,0.045,0.52,0,0.929,0.046,0.16,0,0.089,0.052,0.31,0,0.583,0.058,0.81,0,1,0.052,0.64,0,1
53136,20100417,-116.02,36.62,0.053,0.87,0,1,0.063,0.67,0,0.988,0.044,0.52,0,0.929,0.046,0.16,0,0.077,0.051,0.31,0,0.619,0.058,0.84,0,1,0.052,0.65,0,1
53136,20100418,-116.02,36.62,0.053,0.89,0,1,0.063,0.7,0,0.988,0.044,0.52,0,0.929,0.046,0.15,0,0.077,0.051,0.3,0,0.607,0.058,0.87,0,1,0.051,0.65,0,1
53136,20100419,-116.02,36.62,0.053,0.9,0,1,0.063,0.73,0,1,0.044,0.52,0,0.952,0.045,0.15,0,0.077,0.051,0.29,0,0.577,0.058,0.89,0,1,0.051,0.66,0,1
53136,20100420,-116.02,36.62,0.05,0.79,0,1,0.063,0.73,0,1,0.043,0.53,0,0.97,0.045,0.14,0,0.071,0.05,0.27,0,0.5,0.056,0.83,0,1,0.05,0.61,0,1
53136,20100421,-116.02,36.62,0.048,0.73,0,0.935,0.062,0.69,0,1,0.043,0.52,0,0.935,0.045,0.13,0,0.06,0.049,0.25,0,0.435,0.055,0.77,0,0.946,0.049,0.57,0,1
53136,20100422,-116.02,36.62,0.046,0.66,0,0.833,0.061,0.62,0,0.893,0.042,0.46,0,0.804,0.044,0.11,0,0.054,0.049,0.22,0,0.369,0.054,0.7,0,0.821,0.048,0.51,0,0.905
53136,20100423,-116.02,36.62,0.046,0.68,0,0.786,0.06,0.54,0,0.768,0.041,0.39,0,0.661,0.043,0.06,0,0.03,0.048,0.17,0,0.298,0.053,0.67,0,0.768,0.048,0.47,0,0.845
53136,20100424,-116.02,36.62,0.047,0.72,0,0.786,0.059,0.51,0,0.762,0.04,0.33,0,0.518,0.042,0.01,0,0.018,0.047,0.13,0,0.19,0.053,0.69,0,0.768,0.047,0.45,0,0.845
53136,20100425,-116.02,36.62,0.048,0.74,0,0.786,0.059,0.49,0,0.762,0.04,0.28,0,0.393,0.042,-0.03,0,0.006,0.046,0.08,0,0.113,0.053,0.69,0,0.768,0.047,0.43,0,0.845
53136,20100426,-116.02,36.62,0.048,0.76,0,0.786,0.058,0.47,0,0.756,0.039,0.25,0,0.304,0.041,-0.07,0,0,0.046,0.03,0,0.048,0.053,0.7,0,0.768,0.046,0.4,0,0.845
53136,20100427,-116.02,36.62,0.048,0.77,0,0.786,0.058,0.45,0,0.738,0.039,0.22,0,0.226,0.04,-0.11,0,0,0.045,-0.02,0,0.012,0.053,0.7,0,0.768,0.046,0.38,0,0.804
53136,20100428,-116.02,36.62,0.049,0.78,0,0.768,0.058,0.43,0,0.631,0.039,0.22,0,0.196,0.039,-0.16,0,0,0.044,-0.07,0,0,0.053,0.71,0,0.72,0.046,0.36,0,0.673
53136,20100429,-116.02,36.62,0.049,0.79,0,0.738,0.058,0.44,0,0.595,0.038,0.23,0,0.196,0.038,-0.21,0,0,0.044,-0.11,0,0,0.053,0.72,0,0.702,0.045,0.35,0,0.625
53136,20100430,-116.02,36.62,0.046,0.71,0,0.643,0.058,0.43,0,0.577,0.038,0.21,0,0.196,0.038,-0.24,0,0,0.043,-0.15,0,0,0.052,0.67,0,0.613,0.045,0.3,0,0.542
53136,20100501,-116.02,36.62,0.043,0.61,0,0.5,0.057,0.38,0,0.44,0.038,0.19,0,0.196,0.037,-0.27,0,0,0.042,-0.19,0,0,0.05,0.58,0,0.47,0.043,0.24,0,0.399
53136,20100502,-116.02,36.62,0.041,0.52,0,0.357,0.056,0.32,0,0.298,0.037,0.15,0,0.179,0.037,-0.3,0.006,0,0.042,-0.24,0,0,0.048,0.51,0,0.327,0.042,0.17,0,0.256
53136,20100503,-116.02,36.62,0.038,0.44,0,0.214,0.055,0.26,0,0.161,0.037,0.1,0,0.125,0.036,-0.34,0.03,0,0.041,-0.29,0.012,0,0.046,0.43,0,0.185,0.041,0.11,0,0.113
53136,20100504,-116.02,36.62,0.036,0.36,0,0.071,0.054,0.21,0,0.036,0.036,0.06,0,0.077,0.035,-0.37,0.071,0,0.04,-0.33,0.024,0,0.045,0.36,0,0.042,0.04,0.05,0,0.012
53136,20100505,-116.02,36.62,0.034,0.29,0,0.012,0.053,0.18,0,0,0.036,0.02,0,0.012,0.035,-0.39,0.095,0,0.04,-0.36,0.03,0,0.043,0.3,0,0,0.039,0,0,0
53136,20100506,-116.02,36.62,0.032,0.22,0,0,0.053,0.16,0,0,0.035,-0.01,0,0,0.034,-0.41,0.155,0,0.04,-0.39,0.048,0,0.042,0.25,0,0,0.039,-0.04,0,0
53136,20100507,-116.02,36.62,0.03,0.15,0,0,0.052,0.16,0,0,0.035,0,0,0,0.034,-0.43,0.28,0,0.039,-0.42,0.083,0,0.041,0.21,0,0,0.038,-0.06,0,0
53136,20100508,-116.02,36.62,0.028,0.08,0.012,0,0.052,0.15,0,0,0.035,0,0,0,0.033,-0.45,0.405,0,0.039,-0.44,0.155,0,0.04,0.16,0,0,0.037,-0.09,0,0
53136,20100509,-116.02,36.62,0.026,0.02,0.012,0,0.052,0.14,0,0,0.035,-0.01,0,0,0.033,-0.47,0.524,0,0.039,-0.44,0.167,0,0.039,0.11,0,0,0.037,-0.12,0,0
53136,20100510,-116.02,36.62,0.025,-0.05,0.077,0,0.051,0.12,0,0,0.034,-0.01,0,0,0.032,-0.48,0.613,0,0.038,-0.45,0.208,0,0.038,0.06,0,0,0.036,-0.15,0,0
53136,20100511,-116.02,36.62,0.023,-0.1,0.167,0,0.05,0.09,0,0,0.034,-0.03,0,0,0.032,-0.49,0.673,0,0.038,-0.46,0.286,0,0.037,0,0.018,0,0.036,-0.18,0.024,0
53136,20100512,-116.02,36.62,0.022,-0.16,0.286,0,0.049,0.04,0,0,0.033,-0.07,0.006,0,0.031,-0.51,0.768,0,0.038,-0.47,0.357,0,0.036,-0.05,0.089,0,0.035,-0.22,0.107,0
53136,20100513,-116.02,36.62,0.021,-0.2,0.405,0,0.048,0,0,0,0.033,-0.1,0.012,0,0.031,-0.53,0.851,0,0.037,-0.49,0.435,0,0.035,-0.1,0.143,0,0.034,-0.26,0.202,0
53136,20100514,-116.02,36.62,0.021,-0.23,0.452,0,0.048,-0.03,0,0,0.033,-0.12,0.012,0,0.03,-0.53,0.869,0,0.037,-0.5,0.494,0,0.034,-0.14,0.185,0,0.034,-0.28,0.238,0
53136,20100515,-116.02,36.62,0.02,-0.25,0.524,0,0.047,-0.04,0,0,0.032,-0.13,0.012,0,0.03,-0.53,0.887,0,0.037,-0.5,0.524,0,0.034,-0.16,0.208,0,0.033,-0.29,0.268,0
53136,20100516,-116.02,36.62,0.02,-0.27,0.625,0,0.047,-0.05,0,0,0.032,-0.13,0.012,0,0.03,-0.53,0.905,0,0.037,-0.51,0.601,0,0.033,-0.18,0.244,0,0.033,-0.31,0.28,0
53136,20100517,-116.02,36.62,0.02,-0.28,0.69,0,0.046,-0.06,0,0,0.032,-0.13,0.012,0,0.03,-0.53,0.929,0,0.037,-0.51,0.637,0,0.033,-0.19,0.268,0,0.033,-0.31,0.315,0
53136,20100518,-116.02,36.62,0.019,-0.33,0.738,0,0.046,-0.09,0.036,0,0.032,-0.13,0.018,0,0.029,-0.53,0.958,0,0.037,-0.5,0.619,0,0.032,-0.23,0.387,0,0.033,-0.33,0.423,0
53136,20100519,-116.02,36.62,0.019,-0.35,0.762,0,0.045,-0.1,0.042,0,0.032,-0.13,0.012,0,0.029,-0.52,0.982,0,0.036,-0.5,0.649,0,0.032,-0.24,0.458,0,0.032,-0.34,0.482,0
53136,20100520,-116.02,36.62,0.019,-0.37,0.786,0,0.045,-0.12,0.054,0,0.032,-0.12,0.006,0,0.029,-0.5,0.976,0,0.036,-0.5,0.679,0,0.032,-0.26,0.536,0,0.032,-0.35,0.53,0
53136,20100521,-116.02,36.62,0.018,-0.41,0.881,0,0.045,-0.13,0.06,0,0.032,-0.12,0.006,0,0.029,-0.49,0.976,0,0.036,-0.49,0.696,0,0.031,-0.28,0.619,0,0.032,-0.37,0.637,0
53136,20100522,-116.02,36.62,0.018,-0.46,0.94,0,0.044,-0.16,0.071,0,0.032,-0.12,0.012,0,0.029,-0.48,0.976,0,0.036,-0.48,0.69,0,0.031,-0.31,0.738,0,0.032,-0.39,0.75,0
53136,20100523,-116.02,36.62,0.017,-0.52,0.982,0,0.043,-0.2,0.155,0,0.032,-0.14,0.042,0,0.029,-0.47,0.97,0,0.036,-0.48,0.708,0,0.03,-0.36,0.845,0,0.032,-0.43,0.881,0
53136,20100524,-116.02,36.62,0.017,-0.52,0.935,0.036,0.042,-0.28,0.286,0,0.031,-0.19,0.149,0,0.029,-0.48,0.97,0,0.036,-0.49,0.756,0,0.029,-0.41,0.94,0,0.031,-0.48,0.988,0
53136,20100525,-116.02,36.62,0.019,-0.31,0.798,0.179,0.041,-0.32,0.393,0,0.031,-0.23,0.28,0,0.029,-0.49,0.982,0,0.036,-0.51,0.821,0,0.03,-0.33,0.804,0,0.031,-0.49,1,0
53136,20100526,-116.02,36.62,0.021,-0.08,0.655,0.321,0.041,-0.34,0.476,0,0.03,-0.26,0.411,0,0.029,-0.5,0.982,0,0.035,-0.52,0.857,0,0.031,-0.23,0.661,0.03,0.031,-0.48,0.976,0
53136,20100527,-116.02,36.62,0.023,0.11,0.512,0.464,0.041,-0.35,0.524,0,0.03,-0.28,0.518,0,0.028,-0.52,0.988,0,0.035,-0.53,0.851,0,0.032,-0.14,0.53,0.048,0.031,-0.48,0.946,0
53136,20100528,-116.02,36.62,0.024,0.27,0.369,0.583,0.04,-0.37,0.565,0,0.03,-0.31,0.637,0,0.028,-0.53,0.988,0,0.035,-0.53,0.869,0,0.032,-0.07,0.405,0.048,0.031,-0.48,0.94,0
53136,20100529,-116.02,36.62,0.025,0.38,0.226,0.625,0.04,-0.36,0.565,0,0.029,-0.33,0.744,0,0.028,-0.55,0.988,0,0.035,-0.54,0.917,0,0.033,-0.02,0.262,0.048,0.031,-0.48,0.94,0
53136,20100530,-116.02,36.62,0.026,0.47,0.095,0.625,0.04,-0.33,0.488,0,0.029,-0.35,0.81,0,0.027,-0.56,0.994,0,0.035,-0.56,0.952,0,0.033,0.05,0.125,0.048,0.032,-0.46,0.94,0
53136,20100531,-116.02,36.62,0.026,0.48,0.042,0.589,0.041,-0.26,0.357,0,0.03,-0.32,0.744,0,0.027,-0.56,1,0,0.035,-0.55,0.958,0,0.034,0.11,0.006,0.048,0.032,-0.43,0.94,0
53136,20100601,-116.02,36.62,0.024,0.31,0.095,0.446,0.042,-0.19,0.214,0,0.03,-0.29,0.625,0,0.027,-0.55,1,0,0.035,-0.55,0.958,0,0.033,0.06,0.018,0.048,0.032,-0.44,0.94,0
53136,20100602,-116.02,36.62,0.022,0.08,0.202,0.304,0.042,-0.15,0.125,0,0.03,-0.26,0.518,0,0.027,-0.54,1,0,0.035,-0.54,0.952,0,0.032,-0.02,0.06,0.018,0.031,-0.45,0.964,0
53136,20100603,-116.02,36.62,0.02,-0.13,0.292,0.161,0.042,-0.12,0.065,0,0.03,-0.23,0.417,0,0.028,-0.53,1,0,0.035,-0.53,0.97,0,0.031,-0.1,0.107,0,0.031,-0.47,0.994,0
53136,20100604,-116.02,36.62,0.019,-0.28,0.387,0.042,0.042,-0.09,0.018,0,0.031,-0.2,0.298,0,0.028,-0.52,1,0,0.035,-0.53,0.982,0,0.031,-0.15,0.155,0,0.031,-0.47,1,0
53136,20100605,-116.02,36.62,0.018,-0.38,0.464,0,0.042,-0.07,0.006,0,0.031,-0.16,0.19,0,0.028,-0.5,1,0,0.035,-0.53,0.976,0,0.03,-0.19,0.214,0,0.031,-0.46,1,0
53136,20100606,-116.02,36.62,0.017,-0.43,0.524,0,0.042,-0.05,0,0,0.031,-0.12,0.095,0,0.028,-0.48,1,0,0.035,-0.51,0.964,0,0.03,-0.2,0.226,0,0.031,-0.44,0.988,0
53136,20100607,-116.02,36.62,0.017,-0.45,0.571,0,0.042,-0.06,0,0,0.032,-0.08,0.054,0,0.029,-0.46,1,0,0.036,-0.49,0.952,0,0.029,-0.22,0.274,0,0.031,-0.43,0.982,0
53136,20100608,-116.02,36.62,0.017,-0.47,0.625,0,0.042,-0.07,0,0,0.032,-0.05,0.036,0,0.029,-0.44,1,0,0.036,-0.47,0.946,0,0.029,-0.23,0.321,0,0.031,-0.41,0.976,0
53136,20100609,-116.02,36.62,0.017,-0.47,0.637,0,0.041,-0.09,0.006,0,0.032,-0.04,0.012,0,0.029,-0.43,1,0,0.036,-0.45,0.881,0,0.029,-0.25,0.387,0,0.031,-0.4,0.97,0
53136,20100610,-116.02,36.62,0.016,-0.49,0.673,0,0.041,-0.12,0.065,0,0.032,-0.03,0.006,0,0.029,-0.41,1,0,0.036,-0.43,0.833,0,0.029,-0.28,0.482,0,0.031,-0.39,0.97,0
53136,20100611,-116.02,36.62,0.016,-0.52,0.708,0,0.04,-0.16,0.149,0,0.032,-0.04,0.048,0,0.03,-0.4,1,0,0.037,-0.41,0.821,0,0.028,-0.32,0.577,0,0.031,-0.39,0.97,0
53136,20100612,-116.02,36.62,0.016,-0.58,0.774,0,0.039,-0.22,0.268,0,0.032,-0.07,0.155,0,0.03,-0.39,1,0,0.037,-0.39,0.81,0,0.027,-0.39,0.661,0,0.031,-0.39,0.97,0
53136,20100613,-116.02,36.62,0.015,-0.68,0.845,0,0.038,-0.31,0.405,0,0.031,-0.13,0.286,0,0.03,-0.39,1,0,0.037,-0.4,0.815,0,0.026,-0.49,0.786,0,0.03,-0.42,0.982,0
53136,20100614,-116.02,36.62,0.014,-0.75,0.911,0,0.037,-0.37,0.548,0,0.03,-0.18,0.411,0,0.029,-0.41,1,0,0.036,-0.41,0.827,0,0.026,-0.56,0.881,0,0.029,-0.45,0.988,0
53136,20100615,-116.02,36.62,0.014,-0.79,0.923,0,0.036,-0.41,0.649,0,0.03,-0.22,0.494,0,0.029,-0.42,1,0,0.036,-0.43,0.839,0,0.025,-0.61,0.964,0,0.029,-0.47,0.994,0
53136,20100616,-116.02,36.62,0.014,-0.81,0.923,0,0.036,-0.45,0.75,0,0.029,-0.25,0.56,0,0.029,-0.42,1,0,0.036,-0.47,0.911,0,0.025,-0.64,1,0,0.029,-0.48,1,0
53136,20100617,-116.02,36.62,0.013,-0.81,0.929,0,0.035,-0.46,0.798,0,0.029,-0.28,0.595,0,0.029,-0.43,1,0,0.035,-0.5,0.964,0,0.024,-0.66,0.994,0,0.028,-0.49,1,0
53136,20100618,-116.02,36.62,0.013,-0.81,0.923,0,0.035,-0.48,0.821,0,0.029,-0.29,0.637,0,0.029,-0.44,1,0,0.035,-0.53,0.976,0,0.024,-0.67,0.994,0,0.028,-0.49,1,0
53136,20100619,-116.02,36.62,0.013,-0.78,0.911,0,0.034,-0.47,0.786,0,0.029,-0.29,0.613,0,0.029,-0.45,1,0,0.035,-0.57,0.994,0,0.024,-0.66,0.994,0,0.028,-0.49,1,0
53136,20100620,-116.02,36.62,0.014,-0.74,0.905,0,0.034,-0.44,0.744,0,0.029,-0.27,0.56,0,0.029,-0.45,1,0,0.035,-0.58,1,0,0.024,-0.63,0.994,0,0.028,-0.47,1,0
53136,20100621,-116.02,36.62,0.014,-0.71,0.899,0,0.034,-0.43,0.708,0,0.029,-0.27,0.512,0,0.029,-0.45,1,0,0.035,-0.59,1,0,0.024,-0.62,0.994,0,0.028,-0.46,1,0
53136,20100622,-116.02,36.62,0.013,-0.72,0.923,0,0.034,-0.44,0.738,0,0.028,-0.28,0.518,0,0.029,-0.45,1,0,0.035,-0.6,1,0,0.024,-0.64,0.994,0,0.028,-0.47,1,0
53136,20100623,-116.02,36.62,0.013,-0.73,0.917,0,0.033,-0.44,0.726,0,0.028,-0.29,0.53,0,0.029,-0.45,1,0,0.035,-0.61,1,0,0.023,-0.64,0.976,0,0.028,-0.46,0.976,0
53136,20100624,-116.02,36.62,0.013,-0.73,0.905,0,0.033,-0.45,0.75,0,0.028,-0.3,0.565,0,0.029,-0.45,1,0,0.035,-0.61,1,0,0.023,-0.64,0.982,0,0.028,-0.46,0.952,0
53136,20100625,-116.02,36.62,0.013,-0.74,0.911,0,0.033,-0.45,0.726,0,0.027,-0.31,0.542,0,0.029,-0.44,1,0,0.035,-0.61,1,0,0.023,-0.64,0.982,0,0.027,-0.46,0.929,0
53136,20100626,-116.02,36.62,0.013,-0.74,0.917,0,0.033,-0.45,0.756,0,0.027,-0.32,0.518,0,0.029,-0.44,1,0,0.035,-0.6,1,0,0.023,-0.64,0.982,0,0.027,-0.45,0.887,0
53136,20100627,-116.02,36.62,0.013,-0.74,0.905,0,0.032,-0.46,0.774,0,0.027,-0.32,0.518,0,0.029,-0.43,1,0,0.035,-0.6,1,0,0.023,-0.64,0.97,0,0.027,-0.45,0.851,0
53136,20100628,-116.02,36.62,0.013,-0.72,0.881,0,0.032,-0.46,0.756,0,0.027,-0.32,0.458,0,0.029,-0.42,1,0,0.035,-0.59,1,0,0.022,-0.62,0.952,0,0.027,-0.45,0.815,0
53136,20100629,-116.02,36.62,0.013,-0.7,0.863,0,0.032,-0.45,0.75,0,0.027,-0.32,0.381,0,0.029,-0.42,1,0,0.036,-0.57,1,0,0.022,-0.6,0.952,0,0.027,-0.45,0.81,0
53136,20100630,-116.02,36.62,0.013,-0.69,0.887,0,0.032,-0.45,0.78,0,0.027,-0.32,0.327,0,0.029,-0.41,0.994,0,0.036,-0.55,0.994,0,0.022,-0.6,0.97,0,0.027,-0.46,0.827,0
53136,20100701,-116.02,36.62,0.013,-0.7,0.911,0,0.031,-0.46,0.774,0,0.027,-0.32,0.292,0,0.03,-0.4,0.994,0,0.036,-0.51,0.988,0,0.022,-0.59,0.97,0,0.027,-0.48,0.851,0
53136,20100702,-116.02,36.62,0.013,-0.7,0.917,0,0.031,-0.47,0.833,0,0.026,-0.33,0.298,0,0.03,-0.41,0.994,0,0.037,-0.49,0.982,0,0.022,-0.6,0.97,0,0.027,-0.51,0.875,0
53136,20100703,-116.02,36.62,0.013,-0.71,0.923,0,0.031,-0.49,0.863,0,0.026,-0.34,0.357,0,0.029,-0.42,0.994,0,0.037,-0.47,0.982,0,0.022,-0.6,0.97,0,0.027,-0.54,0.917,0
53136,20100704,-116.02,36.62,0.012,-0.73,0.94,0,0.03,-0.51,0.893,0,0.026,-0.36,0.399,0,0.029,-0.42,0.994,0,0.037,-0.47,0.976,0,0.021,-0.62,0.982,0,0.027,-0.58,0.952,0
53136,20100705,-116.02,36.62,0.012,-0.75,0.97,0,0.03,-0.54,0.946,0,0.025,-0.38,0.494,0,0.029,-0.43,0.994,0,0.037,-0.46,0.976,0,0.021,-0.64,1,0,0.027,-0.62,0.988,0
53136,20100706,-116.02,36.62,0.012,-0.78,0.988,0,0.03,-0.56,0.964,0,0.025,-0.41,0.607,0,0.029,-0.44,0.994,0,0.037,-0.47,0.976,0,0.021,-0.66,1,0,0.026,-0.65,0.994,0
53136,20100707,-116.02,36.62,0.012,-0.8,0.994,0,0.029,-0.58,0.982,0,0.024,-0.43,0.708,0,0.029,-0.46,1,0,0.036,-0.48,0.982,0,0.021,-0.68,1,0,0.026,-0.68,1,0
53136,20100708,-116.02,36.62,0.012,-0.81,0.994,0,0.029,-0.6,1,0,0.024,-0.45,0.792,0,0.029,-0.48,1,0,0.036,-0.48,0.988,0,0.02,-0.69,1,0,0.026,-0.7,1,0